DELTA 1 DEB, 42558

Orbit data source: Space-Track

DELTA 1 DEB, 42558 is space debris in SSO originally from a launch on Sun, 23 Jul 1972 UTC launched from the Air Force Western Test Range (AFWTR). Debris objects in space refer to the collection of defunct objects orbiting the Earth. Examples of debris include non-operational satellites, rocket bodies, and fragments generated from explosions, collisions, or faulty payload assembly.

Loading next visibility...
Identifier
42558, 1972-058JR
Orbit
SSO
Country
Flag of USUS
Related business
Manufacturer
Unknown
Mission
Spacecraft
Bus & Motor
Unknown
Mass
Unknown
Launch date (UTC)
1972-07-23 (53 years ago)
Launch vehicle
Unknown
Launch site
Air Force Western Test Range (AFWTR)
Object type
Payload
Rocket body
Debris
Shape & HBR
Unknown shape, 0.1 m
Radar Cross Section
Small (<0.1 m²)

Expand to show TLE details & history
Last TLE update: 13 hours ago

TLE from 13 hours ago
0 DELTA 1 DEB
1 42558U 72058JR  25351.86728316  .00001176  00000-0  21582-3 0  9999
2 42558  97.8626 319.3714 0035829 242.9019 116.8529 14.67128577643908
Epoch: 2025-12-17T20:48Z
TLE epoch observation values (Epoch: 2025-12-17T20:48:53.265Z)
Latitude
-0.00003°
Longitude
-79.58152°
Altitude
684.736 km
Speed
7.508 km/s
True Right ascension
21h 17m 29s
True Declination
0° 00' 00"
Sunlit
Object was in daylight at epoch
Visualization orbit readout
Latitude
Unknown
Longitude
Unknown
Altitude
Unknown
Speed
Unknown
Apparent Right ascension
Unknown
Apparent Declination
Unknown
Sunlit
N/A
Visualization observer readout
Local Sidereal Time
08:07:56
Azimuth
Unknown
Elevation
Unknown
Doppler factor
Unknown
Orbital elements
Apogee altitude
692.549 km
Perigee altitude
642.063 km
Semi-major axis
7,045.443 km
Eccentricity
0.00358
Inclination
97.8626°
RAAN
319.3714°
Arg. of periapsis
242.9019°
True anomaly
117.21846°
Mean anomaly
116.8529°
Eccentric anomaly
117.03575°
Mean motion
3.67012 °/min
Orbital period
98.09 mins
BSTAR
0.00021582
Loading maneuver chart data...
Computing Atmospheric mass density...
Loading historical data...
Loading historical data...
Loading historical data...
Loading historical data...
Loading historical data...
Loading historical data...
Loading historical data...

Documentation

Showing up to 5 results
|